Probability
0 0 0 0 0 0 1 1 1 2 3 3 2 1 0 0 0 0 0 0 0 0 0 0 0 0 0 1 2 3 2 1 1 2 4 3 1 0 0 0 0 0 0
0 0 0 0 0 0 0 0 1 2 3 4 3 1 0 0 0 0 0 0 0 0 0 0 0 0 0 0 1 2 3 2 2 2 4 3 1 0 0 0 0 0 0
0 0 0 0 0 0 0 0 1 3 4 4 4 1 0 0 0 0 0 0 0 0 0 0 0 0 0 0 0 1 3 3 2 2 3 3 1 0 0 0 0 0 0
0 0 0 0 0 0 0 1 2 3 3 4 3 2 2 1 0 0 0 0 0 0 0 0 0 0 1 1 0 0 2 3 3 3 2 2 1 0 0 0 0 0 0
0 0 0 0 0 0 0 1 2 3 3 3 2 2 3 2 1 0 0 0 0 0 0 0 0 0 1 1 1 1 2 4 4 4 2 2 1 0 0 0 0 0 0
0 0 0 0 0 0 0 0 1 3 3 2 1 2 3 3 2 0 0 0 0 0 0 0 0 0 0 1 1 2 3 4 5 4 3 3 2 1 1 1 1 0 0
0 0 0 0 0 0 0 0 1 2 3 3 2 2 2 2 1 0 0 0 0 0 0 0 0 0 0 0 1 1 2 4 5 4 3 3 3 3 3 3 2 1 1
0 0 0 0 0 0 0 0 1 3 3 3 2 1 1 1 0 0 0 0 0 0 0 0 0 0 0 0 0 0 1 3 4 3 3 3 3 3 5 6 4 2 2
0 0 0 0 0 0 0 0 2 3 3 2 1 0 0 0 0 0 0 0 0 0 0 0 0 0 0 0 0 0 0 1 3 2 3 4 3 2 4 6 6 4 3
0 0 0 0 0 0 0 0 1 2 2 1 0 0 1 1 0 0 0 0 0 0 0 0 0 0 0 0 0 0 0 0 1 1 2 4 3 2 3 6 6 6 5
0 0 0 0 0 0 0 0 0 1 1 0 0 0 1 1 0 0 0 0 0 0 0 0 0 0 0 0 0 0 0 0 0 0 1 3 2 1 3 5 6 6 6
0 0 0 0 0 0 0 0 0 0 0 0 0 0 0 0 0 0 0 0 0 0 0 0 0 0 0 0 0 0 0 0 0 0 1 1 1 1 2 4 4 4 5
0 0 0 0 0 0 0 0 0 0 0 0 0 0 0 0 0 0 0 0 0 0 0 0 0 0 0 0 0 0 0 0 0 0 0 0 0 0 1 2 2 3 3
1 0 0 0 0 0 0 0 0 0 0 0 0 0 0 0 0 0 0 0 0 0 0 0 0 0 0 0 0 0 0 0 0 0 0 0 0 0 0 1 1 1 1
2 1 0 0 0 0 0 0 0 0 0 0 0 0 0 0 0 0 0 0 0 0 0 0 0 0 0 0 0 0 0 0 0 0 0 0 0 0 0 0 0 0 0
3 2 1 0 0 0 0 0 0 0 0 0 0 0 0 0 0 0 0 0 0 0 0 0 0 0 0 0 0 0 0 0 0 0 0 0 0 0 0 0 0 0 0
3 2 1 0 0 0 0 0 0 0 0 0 0 0 0 0 0 0 0 0 0 0 0 0 0 0 0 0 0 0 0 0 0 0 0 0 0 0 0 0 0 0 0
3 3 1 0 0 0 0 0 0 0 0 0 0 0 0 0 0 0 0 0 0 0 0 0 0 0 0 0 0 0 0 0 0 0 0 0 0 0 0 0 0 0 0
3 3 2 0 0 0 0 0 0 0 0 0 0 0 0 0 0 0 0 0 0 0 0 0 0 0 0 0 0 0 0 0 0 0 0 0 0 0 0 0 0 0 0
3 3 2 0 0 0 0 0 0 0 0 0 0 0 0 0 0 0 0 0 0 0 0 0 0 0 0 0 0 0 0 0 0 0 0 0 0 0 0 0 0 0 0
3 3 2 1 0 0 0 0 0 0 0 0 0 0 0 0 0 0 0 0 0 0 0 0 0 0 0 0 0 0 0 0 0 0 0 0 0 0 0 0 0 0 0
3 3 2 1 0 0 0 0 0 0 0 0 0 0 0 0 0 0 0 0 0 0 0 0 0 0 0 0 0 0 0 0 0 0 0 0 0 0 0 0 0 0 0
1 2 1 0 0 0 0 0 0 0 0 0 0 0 0 0 0 0 0 0 0 0 0 0 0 0 0 0 0 0 0 0 0 0 0 0 0 0 0 0 0 0 0
0 0 0 0 0 0 0 0 0 0 0 0 0 0 0 0 0 0 0 0 0 0 0 0 0 0 0 0 0 0 0 0 0 0 0 0 0 0 0 0 0 0 0
0 0 0 0 0 0 0 0 0 0 0 0 0 0 0 0 0 0 0 0 0 0 0 0 0 0 0 0 0 0 0 0 0 0 0 0 0 0 0 0 0 0 0
0 0 0 0 0 0 0 0 0 0 0 0 0 0 0 0 0 0 0 0 0 0 0 0 0 0 0 0 0 0 0 0 0 0 0 0 0 0 0 0 0 0 0
Wind_Speed
2 1 1 1 2 2 1 1 0 0 0 0 0 0 0 0 0 0 1 2 2 1 1 2 2 2 3 3 4 5 5 6 7 7 7 8 7 7 7 7 7 7 7
1 1 1 1 1 1 1 1 1 0 0 0 0 0 0 0 0 1 0 1 2 2 1 2 2 3 3 4 4 4 5 5 6 7 8 7 7 7 6 6 6 6 6
1 1 0 1 1 1 2 1 1 0 1 0 0 1 1 1 1 1 1 1 0 2 2 1 2 2 3 4 4 4 5 5 6 7 8 7 7 6 6 5 5 6 5
1 1 0 1 1 1 1 1 1 1 1 1 0 1 1 1 1 1 1 1 1 1 1 2 2 1 2 3 4 4 4 6 6 6 7 7 7 6 6 5 5 5 5
1 1 0 0 1 1 1 1 1 1 1 1 1 1 1 1 1 1 1 1 1 1 1 1 2 2 1 2 3 4 5 5 5 6 7 7 7 7 7 6 5 5 4
1 1 0 1 1 1 1 1 1 1 1 1 1 1 1 1 1 1 2 1 1 1 2 2 1 1 1 1 2 4 5 5 5 6 6 7 7 7 7 6 5 5 4
1 1 1 1 1 1 1 2 2 1 1 1 1 1 1 2 2 1 2 2 2 1 2 2 2 1 1 0 1 2 3 4 5 5 6 6 6 7 7 6 6 5 4
1 1 1 1 2 2 2 2 2 2 1 1 1 1 2 3 2 1 1 2 2 2 2 2 2 2 1 1 1 0 2 2 2 4 6 6 6 7 7 6 6 6 5
1 1 2 2 2 2 2 3 3 3 2 2 2 2 2 2 0 2 2 1 1 2 2 2 3 3 2 1 1 1 1 1 2 3 5 6 6 7 7 7 6 6 6
2 2 2 2 2 2 3 3 3 3 3 3 2 2 3 2 2 1 2 2 2 2 2 2 3 3 3 2 1 1 0 1 2 3 5 6 6 6 6 7 6 6 6
2 2 2 2 2 2 3 3 4 4 4 4 3 2 3 3 3 3 3 2 2 2 2 3 3 3 3 2 2 1 1 1 2 3 4 5 5 5 5 6 6 6 5
2 3 3 3 3 3 3 4 4 5 5 5 4 4 3 3 3 3 3 3 3 2 3 3 3 3 2 2 1 1 2 2 2 3 4 5 5 5 5 4 6 6 5
2 3 3 4 4 4 4 4 4 5 5 6 6 5 4 4 3 3 3 3 4 2 3 3 3 2 2 1 1 1 2 2 3 3 4 4 5 4 5 4 4 4 5
4 4 5 5 5 5 5 5 4 5 5 5 6 6 5 4 4 4 3 3 3 3 4 4 2 2 1 1 2 3 3 3 3 3 4 4 4 4 4 4 4 4 4
4 5 5 5 5 5 5 5 4 5 5 6 6 6 5 4 4 4 4 4 4 4 4 3 2 2 2 2 2 3 3 3 4 4 4 4 4 4 4 4 4 4 4
5 5 5 6 6 6 6 6 5 5 6 5 5 6 6 5 5 4 4 5 5 5 5 3 2 2 3 2 3 3 4 4 5 5 5 4 4 5 5 5 5 5 5
5 5 6 6 6 6 6 6 6 6 7 6 6 7 7 6 5 5 4 5 5 5 6 4 3 3 4 4 3 3 3 4 4 5 5 5 5 6 6 6 6 5 6
6 6 6 6 6 6 6 7 7 7 7 7 7 7 7 6 7 6 5 6 5 6 5 6 4 3 4 4 4 4 3 3 4 5 6 7 6 6 6 6 6 6 6
6 6 6 6 7 6 7 7 7 7 8 8 8 8 7 7 8 6 6 6 5 5 5 5 4 3 3 3 3 3 3 3 4 4 6 7 7 7 6 6 6 6 7
6 6 6 7 7 7 7 7 7 8 8 8 7 7 7 8 8 7 6 7 6 6 6 5 4 4 4 3 3 3 3 3 3 3 4 4 5 7 7 7 7 7 7
6 6 6 6 6 6 6 7 7 7 7 7 7 7 7 8 8 7 6 6 6 6 6 5 5 5 4 4 4 3 4 3 3 3 3 3 3 4 5 6 7 7 7
6 6 6 6 6 5 8 10 8 7 7 7 7 7 7 8 9 11 10 9 8 7 7 6 6 6 6 6 5 4 4 3 4 2 3 3 3 3 3 3 5 7 8
7 7 6 6 7 7 9 10 9 7 6 6 7 6 6 6 8 7 9 10 10 10 9 8 8 8 7 6 6 6 6 5 4 2 2 3 3 4 3 3 5 6 7
6 6 6 7 7 7 9 9 9 7 6 7 7 7 7 7 6 7 6 7 7 8 9 8 8 7 6 6 6 6 5 3 3 3 3 3 3 3 3 3 5 6 7
6 6 6 6 7 7 7 8 8 5 5 6 6 7 7 7 8 9 7 7 7 7 7 8 8 8 9 9 7 4 5 4 4 3 3 3 2 2 3 3 4 6 7
6 6 6 6 6 6 7 8 8 5 5 5 5 6 8 9 9 10 8 7 8 6 5 5 6 7 7 8 9 7 6 6 4 3 4 3 2 2 2 3 3 3 4
Wind_Direction
56 39 22 12 7 359 345 339 4 72 80 109 121 122 91 53 5 270 90 42 7 309 269 228 192 182 169 163 154 153 156 158 154 146 141 134 127 123 119 117 114 111 111
57 38 16 9 5 349 337 326 334 293 269 276 343 295 263 235 261 292 285 69 14 343 292 239 217 210 195 185 177 165 166 160 158 153 147 140 134 130 128 125 123 117 114
39 33 19 356 355 337 326 319 327 241 212 228 264 299 284 270 245 262 280 275 300 12 355 297 238 220 214 198 191 185 179 171 163 158 155 149 141 136 135 135 135 132 124
22 6 47 339 329 311 299 286 292 264 230 232 258 299 277 265 260 260 264 277 279 274 342 357 329 245 223 216 207 198 188 180 174 171 167 163 158 153 150 144 139 139 138
354 338 50 297 285 278 275 273 262 264 242 239 261 285 281 266 269 260 251 267 279 285 279 325 350 348 273 238 217 207 192 182 177 172 168 167 170 167 161 150 138 135 137
337 329 263 239 260 242 244 255 252 247 245 230 240 265 275 266 254 251 246 247 265 270 277 273 256 302 355 277 238 216 202 191 183 177 171 170 168 170 167 162 156 147 141
321 315 307 241 247 238 239 240 237 223 232 242 237 238 241 229 232 239 242 240 242 250 262 273 267 263 250 305 274 230 208 199 190 189 179 176 178 174 171 171 168 167 169
297 285 284 258 236 237 232 228 226 233 237 248 255 236 223 208 193 241 253 247 250 249 245 254 257 256 255 253 43 237 215 199 200 199 190 187 188 188 183 180 180 180 179
253 264 258 257 231 229 227 232 232 231 234 242 266 255 239 227 246 214 238 253 269 262 250 257 257 249 242 235 243 180 191 212 211 218 203 196 192 192 191 189 187 185 186
249 253 252 250 245 240 237 237 238 242 232 232 238 267 280 292 240 226 213 219 264 272 271 268 261 255 244 230 229 285 202 220 237 244 227 207 195 192 198 197 195 190 186
246 250 254 252 246 246 246 245 239 237 234 235 236 242 242 251 245 239 237 235 255 264 275 275 265 255 249 238 226 215 218 240 241 247 230 215 198 190 185 195 190 187 186
249 248 248 250 249 249 248 247 244 240 239 238 237 237 235 237 235 240 250 247 252 260 268 264 259 252 245 246 247 209 211 240 241 239 236 224 200 195 189 194 199 194 194
256 253 255 250 248 249 248 247 243 243 243 241 237 238 239 243 250 251 256 260 268 271 252 245 243 254 257 253 241 256 214 224 237 237 236 228 203 202 200 201 203 202 205
259 260 253 253 252 249 245 242 242 242 243 242 242 240 239 238 239 238 243 249 259 255 238 234 228 235 249 267 279 269 225 210 230 242 249 244 212 206 206 204 204 210 214
264 260 255 254 253 250 245 241 242 242 245 244 245 246 245 238 236 237 237 238 241 247 243 226 222 215 233 256 268 260 249 224 225 236 243 239 212 205 205 208 212 213 218
261 258 256 253 250 249 248 242 243 242 243 243 244 244 247 242 236 233 231 237 242 249 252 243 254 257 253 255 261 264 253 243 228 223 227 223 213 213 212 214 214 212 218
263 258 256 255 251 247 244 242 241 240 240 242 240 242 245 245 241 233 230 231 236 239 246 257 263 264 258 252 255 257 255 244 228 223 226 217 220 222 218 216 219 215 219
266 261 258 255 255 254 247 242 241 239 238 240 239 240 242 241 240 237 231 230 233 235 238 246 250 250 254 254 255 251 256 251 239 229 228 219 221 222 220 217 223 224 225
267 262 257 254 253 252 251 247 243 242 242 242 240 239 240 239 237 233 233 233 232 232 233 237 245 250 251 243 250 259 260 253 247 234 223 218 220 220 220 221 225 229 227
270 264 260 258 257 253 250 249 247 245 245 243 241 239 239 236 236 234 232 232 232 232 232 232 234 237 241 237 237 238 250 245 247 237 223 221 219 217 219 223 226 230 229
277 270 265 263 260 255 249 251 252 249 243 242 241 238 239 240 242 236 234 229 226 229 229 230 230 234 229 220 226 231 243 250 254 232 219 216 218 219 216 216 220 223 228
279 271 264 263 262 258 259 256 256 247 246 243 241 239 238 236 236 235 239 239 234 230 228 230 232 231 232 232 231 227 233 239 249 211 225 235 229 231 227 224 221 229 233
280 274 268 265 265 264 264 262 254 246 244 244 242 239 238 236 233 233 234 235 237 239 238 238 238 238 235 230 228 229 229 233 248 231 233 243 235 241 239 232 227 236 237
282 278 276 271 269 268 268 264 260 248 247 246 243 240 240 239 233 229 230 233 237 238 238 239 243 246 245 238 229 235 244 250 265 249 223 238 235 245 249 244 224 231 238
285 281 279 274 272 273 264 265 267 253 249 249 247 241 240 241 234 228 230 234 239 241 237 238 245 246 244 241 234 225 219 219 238 233 218 225 232 256 259 249 225 223 236
282 282 279 276 271 272 270 265 265 253 249 249 244 240 238 241 239 233 233 233 236 239 237 237 240 243 239 232 229 227 220 218 223 229 206 205 219 229 254 244 237 232 235